Flag for Germany Weather past 2 weeks in Lahr, Baden-Württemberg, Germany

Now
57 °F

Overcast.


Feels Like: 57 °F
Forecast: 51 / 67 °F
Wind: 5 mph from Southwest

Location: Lahr

Current Time: Apr 25, 2015 at 10:51:17 PM

Latest Report: Apr 25, 2015 at 10:00 PM


Visibility: 22 mi

Pressure: 29.88 "Hg

Humidity: 87%

Dew point: 53 °F

Location of LahrLocation

Historic Weather in Lahr — Graph

°F

Lahr temperature yesterday

Maximum temperature yesterday: 71 °F (at 5:00 PM)
Minimum temperature yesterday: 38 °F (at 7:00 AM)
Average temperature yesterday: 56 °F

Past Weeks' High & Low Weather Summary

 TemperatureHumidityPressure
High80 °F (Apr 15, 5:00 PM)98% (Apr 18, 7:00 AM)30.47 "Hg (Apr 18, 7:00 AM)
Low33 °F (Apr 19, 7:00 AM)15% (Apr 15, 4:00 PM)29.84 "Hg (Apr 25, 6:00 PM)
Average56 °F59%30.17 "Hg
* Reported Apr 10 9:00 PM — Apr 25 9:00 PM, Lahr, Weather by CustomWeather, © 2015

Note: Actual official high and low records may vary slightly from our data, if they occured in-between our weather recording intervals... More about our weather records

Advertising

Lahr weather history for previous 24 hours

 ConditionsComfort  
Time TempWeatherWind HumidityBarometerVisibility
9:00 PM
Sat, Apr 25
58 °FLight rain. Overcast.3 mph90%29.86 "Hg14 mi
8:00 PM59 °FSprinkles. Overcast.5 mph87%29.85 "Hg9 mi
7:00 PM61 °FOvercast.7 mph77%29.84 "Hg22 mi
6:00 PM62 °FOvercast.7 mph77%29.84 "Hg31 mi
5:00 PM61 °FLight rain. Overcast.8 mph80%29.85 "Hg19 mi
4:00 PM60 °FLight rain. Overcast.6 mph83%29.86 "Hg12 mi
3:00 PM61 °FLight rain. Overcast.3 mph80%29.88 "Hg12 mi
2:00 PM63 °FLight rain. Overcast.5 mph74%29.88 "Hg11 mi
1:00 PM64 °FLight rain. Overcast.7 mph66%29.87 "Hg31 mi
12:00 PM63 °FOvercast.6 mph67%29.86 "Hg28 mi
11:00 AM61 °FOvercast.7 mph70%29.87 "Hg28 mi
10:00 AM56 °FRain. Overcast.1 mph81%29.88 "Hg19 mi
9:00 AM54 °FRain. Overcast.1 mph83%29.89 "Hg12 mi
8:00 AM55 °FRain. Overcast.3 mph64%29.88 "Hg28 mi
7:00 AM54 °FLight rain. Overcast.5 mph59%29.88 "Hg17 mi
6:00 AM50 °FOvercast.2 mph69%29.87 "Hg19 mi
5:00 AM49 °FOvercast.1 mph73%29.87 "Hg16 mi
4:00 AM48 °FPassing clouds.1 mph71%29.87 "Hg10 mi
3:00 AM49 °FClear.2 mph65%29.87 "Hg7 mi
1:00 AM53 °FClear.1 mph59%29.89 "Hg31 mi
12:00 AM54 °FClear.2 mph60%29.90 "Hg28 mi
11:00 PM
Fri, Apr 24
52 °FClear.No wind68%29.90 "Hg22 mi
10:00 PM56 °FClear.No wind60%29.89 "Hg25 mi
Weather by CustomWeather, © 2015

See weather overviewHow to use our weather pages